SCP
0 0 0 0 0 0 0 0 0 0 0 0 0 0 0 0 0 1 1 1 1 0 0 1 1 1 1 1 1 1 1 1 1 2 1 1 1 1
0 0 0 0 0 0 0 0 0 0 0 0 0 0 0 0 1 1 1 1 1 1 0 0 1 1 1 1 1 1 1 1 1 1 1 1 1 1
0 0 0 0 0 0 0 0 0 0 0 0 0 0 0 0 1 1 1 1 1 1 0 0 0 0 0 0 0 1 1 1 1 1 1 1 1 1
0 0 0 0 0 0 0 0 0 0 0 0 0 0 0 0 1 1 1 1 1 1 0 0 0 0 0 0 0 0 0 0 0 1 1 1 1 1
0 0 0 0 0 0 0 0 0 0 0 0 0 0 0 0 0 1 1 1 1 1 0 0 0 0 0 0 0 0 0 0 0 0 0 0 0 0
0 0 0 0 0 0 0 0 0 0 0 0 0 0 0 0 0 1 1 1 1 1 0 0 0 0 0 0 0 0 0 0 0 0 0 0 0 0
0 0 0 0 0 0 0 0 0 0 0 0 0 0 0 0 0 0 1 1 1 0 0 0 0 0 0 0 0 0 0 0 0 0 0 0 0 0
0 0 0 0 0 0 0 0 0 0 0 0 0 0 0 0 0 0 0 0 0 0 0 0 0 0 0 0 0 0 0 0 0 0 0 0 0 0
0 0 0 0 0 0 0 0 0 0 0 0 0 0 0 0 0 0 0 0 0 0 0 0 0 0 0 0 0 0 0 0 0 0 0 0 0 0
0 0 0 0 0 0 0 0 0 0 0 0 0 0 0 0 0 0 0 0 0 0 0 0 0 0 0 0 0 0 0 0 0 0 0 0 0 0
0 0 0 0 0 0 0 0 0 0 0 0 0 0 0 0 0 0 0 0 0 0 0 0 0 0 0 0 0 0 0 0 0 0 0 0 0 0
0 0 0 0 0 0 0 0 0 0 0 0 0 0 0 0 0 0 0 0 0 0 0 0 0 0 0 0 0 0 0 0 0 0 0 0 0 0
0 0 0 0 0 0 0 0 0 0 0 0 0 0 0 0 0 0 0 0 0 0 0 0 0 0 0 0 0 0 0 0 0 0 0 0 0 0
0 0 0 0 0 0 0 0 0 0 0 0 0 0 0 0 0 0 0 0 0 0 0 0 0 0 0 0 0 0 0 0 0 0 0 0 0 0
0 0 0 0 0 0 0 0 0 0 0 0 0 0 0 0 0 0 0 0 0 0 0 0 0 0 0 0 0 0 0 0 0 0 0 0 0 0
0 0 0 0 0 0 0 0 0 0 0 0 0 0 0 0 0 0 0 0 0 0 0 0 0 0 0 0 0 0 0 0 0 0 0 0 0 0
0 0 0 0 0 0 0 0 0 0 0 0 0 0 0 0 0 0 0 0 0 0 0 0 0 0 0 0 0 0 0 0 0 0 0 0 0 0
0 0 0 0 0 0 0 0 0 0 0 0 0 0 0 0 0 0 0 0 0 0 0 0 0 0 0 0 0 0 0 0 0 0 0 0 0 0
0 0 0 0 0 0 0 0 0 0 0 0 0 0 0 0 0 0 0 0 0 0 0 0 0 0 0 0 0 0 0 0 0 0 0 0 0 0
0 0 0 0 0 0 0 0 0 0 0 0 0 0 0 0 0 0 0 0 0 0 0 0 0 0 0 0 0 0 0 0 0 0 0 0 0 0
0 0 0 0 0 0 0 0 0 0 0 0 0 0 0 0 0 0 0 0 0 0 0 0 0 0 0 0 0 0 0 0 0 0 0 0 0 0
0 0 0 0 0 0 0 0 0 0 0 0 0 0 0 0 0 0 0 0 0 0 0 0 0 0 0 0 0 0 0 0 0 0 0 0 0 0
0 0 0 0 0 0 0 0 0 0 0 0 0 0 0 0 0 0 0 0 0 0 0 0 0 0 0 0 0 0 0 0 0 0 0 0 0 0
Wind_Speed
3 3 3 3 2 3 3 3 3 3 4 4 3 3 3 3 5 4 5 8 12 13 14 15 16 17 19 20 21 21 21 21 20 20 20 20 20 20
3 3 3 3 3 3 2 2 3 4 4 3 4 4 4 4 4 4 5 9 11 12 13 14 15 17 18 19 20 21 21 20 20 20 19 19 19 19
3 3 4 3 3 3 2 2 3 3 4 4 3 3 3 4 4 3 4 5 5 10 12 13 14 16 17 18 19 20 21 21 21 20 20 20 19 19
4 4 4 4 4 3 3 3 3 4 4 5 3 3 4 4 4 4 4 4 5 9 12 13 14 15 16 17 18 19 19 20 20 20 20 20 20 20
4 4 5 4 5 4 4 4 4 4 3 4 4 3 3 3 3 4 4 3 5 6 9 11 13 13 14 16 17 18 19 19 20 20 20 20 20 20
5 5 5 5 6 6 5 5 4 4 3 3 3 3 3 3 2 2 3 3 3 3 5 5 8 11 13 15 16 18 18 19 19 19 19 19 19 19
5 5 6 8 9 7 6 5 5 4 3 3 4 3 3 2 3 2 3 3 3 2 2 2 3 4 6 10 14 16 17 18 18 19 18 18 18 18
6 6 6 8 9 9 10 9 7 6 5 4 4 4 5 4 3 3 2 2 3 2 2 3 2 3 4 5 10 14 16 17 18 18 18 18 18 17
6 6 6 7 7 5 7 9 8 10 10 7 6 7 6 5 4 4 4 4 4 3 2 3 2 3 3 5 10 13 15 17 17 18 18 18 18 17
6 6 7 7 7 6 6 6 6 6 8 6 7 8 8 6 6 5 5 4 3 3 3 3 3 3 3 3 8 12 14 15 16 17 17 17 17 17
6 6 6 6 9 9 5 6 6 7 8 10 10 10 11 11 7 3 3 2 3 3 3 3 2 2 2 3 4 9 11 13 14 15 16 16 16 15
5 6 8 8 9 8 5 5 7 7 6 6 6 7 7 8 10 7 6 4 3 3 4 3 3 2 2 1 1 2 4 8 11 13 14 14 15 10
5 5 5 9 10 9 7 6 9 8 5 5 5 5 4 4 5 6 6 6 5 5 4 4 3 2 2 1 1 1 2 2 4 6 10 13 15 12
6 5 6 9 10 11 8 10 13 9 4 4 5 5 5 5 5 6 7 8 7 7 6 5 4 4 3 2 2 1 2 2 3 3 4 8 10 10
5 8 9 11 11 9 11 13 10 5 5 5 7 7 6 6 5 4 4 5 6 7 6 6 5 4 4 4 3 3 2 2 3 4 5 6 6 6
4 7 10 11 9 10 9 7 5 6 6 6 6 6 4 4 4 4 4 4 3 4 5 6 7 6 4 4 4 4 3 4 4 5 4 4 4 5
3 3 4 4 4 4 4 5 5 4 6 6 6 5 5 5 5 4 4 4 4 4 4 3 4 4 6 5 4 5 4 3 4 5 5 5 5 6
2 3 5 5 6 6 5 5 5 5 6 6 6 6 6 5 5 4 4 4 5 5 5 4 3 2 1 2 5 5 5 4 5 6 5 5 6 6
3 5 6 6 6 6 5 5 5 5 5 5 5 6 5 5 4 4 4 4 5 5 5 4 5 5 5 5 4 6 6 5 5 5 5 4 5 6
4 5 6 6 6 6 6 5 5 4 4 4 5 5 5 4 4 5 5 5 5 5 4 4 5 6 7 6 4 3 6 6 5 5 4 2 2 3
5 5 6 6 5 5 5 5 4 4 4 4 4 4 4 4 4 5 5 6 6 5 6 6 6 8 4 3 2 2 2 4 5 5 5 4 3 3
5 5 5 5 5 4 4 4 3 3 3 3 3 4 4 4 5 5 5 4 5 5 5 4 3 4 4 5 5 4 3 2 3 5 4 3 5 6
5 5 5 5 4 4 3 4 4 3 3 3 3 3 3 3 4 4 4 4 4 4 4 3 3 3 4 4 4 4 4 4 3 3 2 5 1 2
Wind_Direction
268 264 252 252 244 230 213 196 203 253 274 270 275 277 273 261 248 235 233 233 231 226 226 226 225 222 217 211 208 208 208 207 207 208 209 211 213 216
263 268 268 260 263 255 237 223 204 210 246 256 252 270 283 281 261 246 241 238 235 229 224 223 223 223 219 214 209 207 206 206 206 206 207 209 210 212
281 272 270 267 265 268 259 246 233 210 240 265 257 267 272 278 283 265 252 237 234 230 227 225 224 223 219 215 211 208 207 207 207 207 208 208 209 211
274 272 271 273 269 265 258 253 247 229 224 258 271 267 261 262 263 265 260 246 233 231 228 227 226 224 220 216 212 209 208 209 208 208 208 209 210 212
262 260 264 265 265 263 259 255 252 253 224 235 259 257 261 267 267 268 265 265 250 237 229 228 228 227 223 218 214 211 210 210 209 209 209 210 211 212
261 257 258 253 251 255 258 252 250 255 248 242 255 263 260 267 254 259 274 265 260 250 237 229 230 230 228 221 216 213 211 210 209 210 210 210 210 210
268 264 263 263 259 253 252 243 238 239 245 243 251 260 261 259 247 242 253 269 261 240 242 237 230 232 228 224 219 214 211 210 209 209 210 211 210 210
266 271 273 271 271 269 268 259 232 222 227 230 238 241 250 243 238 236 238 252 274 258 218 246 215 234 232 221 218 213 212 211 210 210 209 209 209 209
257 264 274 276 278 270 274 277 264 249 230 218 228 237 239 234 229 241 233 224 231 239 204 244 223 235 238 234 220 214 212 211 211 211 210 209 208 209
255 255 258 269 273 265 263 269 265 262 248 234 228 237 240 235 221 227 233 240 257 251 197 230 228 232 237 235 224 214 213 212 211 208 207 206 206 207
264 264 260 261 270 271 259 261 268 272 268 253 241 245 250 250 231 214 221 219 248 253 210 208 232 236 242 241 231 215 212 211 209 207 204 202 201 200
270 269 266 263 271 270 247 246 258 263 268 279 269 267 261 260 242 217 209 209 220 241 220 196 214 196 251 257 232 211 206 210 208 205 201 197 190 190
263 267 266 271 272 272 257 240 247 253 257 257 263 266 264 255 243 224 213 207 211 229 217 184 196 187 200 244 263 218 196 191 192 199 198 191 187 185
254 261 264 273 273 275 268 254 255 256 247 248 254 256 253 251 245 235 225 220 219 224 217 188 195 190 193 213 231 214 191 189 181 181 179 176 184 188
253 264 273 280 283 277 265 261 258 241 229 237 244 247 241 242 245 245 239 227 230 235 228 207 201 200 196 207 208 199 195 198 187 178 174 177 179 175
276 285 287 283 275 266 270 269 245 227 221 233 240 244 243 242 241 230 228 219 225 244 234 218 210 200 207 214 205 205 194 186 182 180 173 177 179 184
286 290 287 290 288 279 272 264 253 236 231 233 235 242 243 242 242 229 220 211 215 227 231 225 217 211 210 198 206 207 196 194 186 175 175 186 194 193
250 268 277 275 272 272 272 272 261 245 237 233 231 231 235 235 236 228 215 211 219 224 220 209 190 188 209 242 210 201 197 193 184 179 177 189 197 192
228 256 263 267 268 267 263 260 260 253 241 232 230 230 230 231 227 225 219 216 220 222 217 200 190 192 207 223 231 204 190 183 176 183 188 188 195 190
234 251 262 264 264 265 264 261 260 260 248 239 234 230 224 222 225 226 219 217 220 219 218 206 200 200 206 205 199 206 195 181 180 184 179 160 133 135
255 253 256 260 262 265 263 260 256 256 252 243 237 232 224 218 225 227 224 223 218 212 216 219 217 201 183 144 161 197 194 189 179 173 166 161 162 166
260 261 261 260 261 264 266 263 260 259 260 250 245 240 229 219 224 225 220 217 216 215 221 223 193 171 170 183 195 192 176 141 104 101 95 137 169 181
256 259 262 266 264 263 264 265 261 260 261 258 254 248 236 224 223 222 221 217 212 213 208 199 185 182 188 188 189 183 173 167 156 139 79 20 56 149